Simultaneous Nadir Overpasses (SNOs) Predictions

Prediction of SNOs over PacNW region [( 10.00, 139.50) to ( 22.70, 165.60)] between AQUA and NPP Satellites:

Table of predicted SNOs over PacNW region for the next 30.0 days since TLE Epoch: 2/22/2020
Index Date (AQUA) Time (AQUA) AQUA Lat,Lon Date (NPP) Time (NPP) NPP Lat,Lon Distance(km) Time Diff (sec)
1 02/26/2020 15:10:07 22.63, 159.83 02/26/2020 15:10:37 23.21, 157.27 270.63 30
2 03/05/2020 15:59:38 22.59, 147.46 03/05/2020 16:01:24 23.21, 144.57 304.05 106
3 03/13/2020 15:10:15 22.59, 159.82 03/13/2020 15:10:43 23.14, 157.23 272.55 28




NCC Satellite Simultaneous Nadir Overpasses (SNOs) Prediction Service
